Total_Precipitation_Accumulation
1.72 1.96 2.52 3.23 3.63 4.16 4.66 4.66 4.46 4.53 4.62 4.63 4.40 4.53 4.71 5.02 5.31 5.27 5.17 5.05 4.92 4.85 4.94 4.95 4.91 4.74 4.66 4.56 4.48 4.49 4.41 4.11 3.97 4.01 3.64 3.13 2.70 2.48 2.39 2.41 2.51 2.52 2.46
1.93 2.25 2.80 3.16 3.53 3.88 4.14 4.45 4.60 4.64 4.43 4.79 5.07 5.34 5.67 5.73 6.01 6.26 6.29 6.08 5.78 5.59 5.44 5.42 5.08 4.76 4.64 4.52 4.41 4.35 4.22 3.87 3.75 3.83 3.85 3.32 2.84 2.28 1.99 2.07 2.10 2.19 2.34
2.22 2.61 2.97 3.12 3.34 3.68 4.03 4.37 4.72 4.85 4.78 5.26 5.78 6.23 6.61 6.54 6.59 6.55 6.51 6.43 6.00 5.67 5.46 5.21 5.01 4.80 4.62 4.45 4.44 4.35 4.23 3.93 3.73 3.71 3.96 3.72 3.18 2.57 2.21 1.98 2.02 2.14 2.26
2.06 2.40 2.74 3.18 3.16 3.41 3.82 4.15 4.58 5.00 5.31 5.71 6.19 6.72 7.06 7.27 7.11 6.78 6.48 6.10 5.61 5.27 4.91 4.73 4.77 4.64 4.43 4.23 3.94 3.82 3.83 3.80 3.63 3.56 3.44 3.34 3.18 2.95 2.62 2.29 2.24 2.29 2.27
1.97 2.18 2.33 2.68 2.95 3.18 3.54 3.99 4.33 4.75 5.40 6.15 6.71 7.23 7.57 7.58 7.04 6.44 5.87 5.40 4.98 4.62 4.38 4.31 4.41 4.31 4.06 3.87 3.62 3.43 3.27 3.28 3.36 3.39 3.30 3.14 2.99 2.75 2.60 2.43 2.31 2.28 2.20
2.02 2.19 2.32 2.61 2.83 2.95 3.21 3.72 4.28 4.64 5.20 5.97 6.58 6.92 7.10 7.03 6.59 5.93 5.38 4.91 4.45 4.07 3.77 3.57 3.48 3.39 3.23 3.12 3.10 3.06 3.02 3.01 3.08 3.11 3.07 2.96 2.86 2.76 2.72 2.55 2.32 2.27 2.29
2.22 2.22 2.23 2.33 2.60 2.76 3.04 3.49 3.98 4.46 4.83 5.28 5.79 5.86 5.92 5.67 5.28 5.06 4.73 4.22 3.79 3.42 3.08 2.89 2.76 2.72 2.68 2.62 2.67 2.73 2.76 2.73 2.80 2.78 2.75 2.70 2.55 2.51 2.65 2.74 2.57 2.39 2.24
2.08 2.12 2.10 2.31 2.64 2.91 3.16 3.41 3.66 4.00 4.36 4.52 4.66 4.54 4.40 4.30 4.14 3.93 3.57 3.23 2.95 2.76 2.65 2.55 2.39 2.34 2.37 2.36 2.50 2.48 2.40 2.41 2.45 2.38 2.44 2.44 2.38 2.41 2.51 2.63 2.80 2.76 2.48
1.89 1.98 2.10 2.37 2.63 2.90 3.06 3.28 3.43 3.54 3.53 3.52 3.59 3.56 3.48 3.34 3.26 3.15 2.85 2.60 2.45 2.27 2.24 2.21 2.13 2.03 1.98 1.97 2.00 1.98 2.01 2.09 2.06 2.05 2.07 2.08 2.15 2.26 2.32 2.42 2.67 2.90 2.79
1.95 1.98 2.12 2.37 2.37 2.43 2.61 2.85 2.97 3.10 3.06 2.92 2.84 2.94 2.86 2.69 2.52 2.37 2.27 2.12 2.02 1.95 1.93 1.86 1.79 1.80 1.81 1.75 1.67 1.64 1.68 1.75 1.82 1.88 1.88 1.86 1.89 2.01 2.02 2.09 2.25 2.54 2.76
2.05 1.99 2.12 2.22 2.08 1.99 2.02 2.18 2.35 2.63 2.65 2.55 2.43 2.45 2.38 2.29 2.15 2.04 1.97 1.95 1.83 1.78 1.72 1.71 1.68 1.58 1.54 1.56 1.59 1.56 1.60 1.72 1.74 1.70 1.73 1.75 1.82 1.92 1.89 1.92 2.02 2.19 2.42
2.10 2.00 2.02 2.07 1.99 1.87 1.78 1.89 2.03 2.10 2.10 2.09 2.16 2.22 2.12 2.07 1.98 1.93 1.91 1.88 1.73 1.68 1.68 1.66 1.60 1.42 1.35 1.48 1.55 1.51 1.50 1.63 1.64 1.60 1.66 1.67 1.71 1.79 1.83 1.92 2.02 2.14 2.31
2.30 2.20 2.06 1.99 1.97 1.84 1.81 1.88 1.92 1.90 1.83 1.81 1.81 1.87 1.87 1.82 1.80 1.63 1.60 1.59 1.56 1.54 1.55 1.46 1.44 1.36 1.30 1.35 1.38 1.38 1.36 1.41 1.49 1.50 1.56 1.61 1.71 1.70 1.74 1.80 1.87 1.99 2.08
2.27 2.11 2.06 1.99 1.86 1.76 1.79 1.87 1.82 1.70 1.72 1.72 1.81 1.76 1.76 1.80 1.83 1.73 1.60 1.51 1.44 1.41 1.41 1.35 1.30 1.28 1.25 1.14 1.10 1.13 1.20 1.30 1.30 1.28 1.39 1.47 1.54 1.56 1.65 1.66 1.74 1.83 2.02
2.24 2.11 2.01 1.91 1.74 1.61 1.60 1.58 1.57 1.51 1.52 1.56 1.65 1.71 1.67 1.61 1.63 1.67 1.53 1.34 1.27 1.19 1.21 1.20 1.17 1.17 1.09 0.97 0.99 1.04 1.04 1.15 1.18 1.17 1.22 1.27 1.32 1.33 1.36 1.33 1.50 1.69 1.87
2.34 2.22 2.11 1.98 1.77 1.63 1.56 1.50 1.40 1.32 1.37 1.41 1.57 1.63 1.60 1.55 1.49 1.52 1.47 1.39 1.31 1.27 1.22 1.20 1.15 1.08 0.93 0.92 0.90 0.90 0.95 1.04 1.13 1.22 1.21 1.11 1.10 1.07 1.01 1.05 1.17 1.39 1.64
2.28 2.22 2.16 2.03 1.84 1.74 1.66 1.69 1.51 1.32 1.40 1.45 1.46 1.50 1.54 1.59 1.56 1.49 1.47 1.47 1.47 1.42 1.32 1.20 1.15 1.08 0.99 0.90 0.76 0.74 0.79 0.98 1.12 1.20 1.19 1.00 0.92 1.03 1.02 1.06 1.06 1.14 1.29
2.40 2.35 2.19 2.01 1.78 1.63 1.57 1.56 1.52 1.42 1.45 1.43 1.36 1.37 1.38 1.42 1.42 1.45 1.46 1.46 1.45 1.42 1.34 1.22 1.16 1.10 0.92 0.81 0.71 0.71 0.75 0.89 0.92 0.95 1.04 1.11 1.11 1.03 1.06 1.07 1.18 1.24 1.34
2.28 2.22 2.04 1.90 1.82 1.66 1.59 1.51 1.46 1.47 1.39 1.29 1.21 1.17 1.16 1.22 1.23 1.28 1.37 1.47 1.47 1.36 1.24 1.16 1.12 1.07 0.91 0.83 0.80 0.80 0.81 0.86 0.81 0.79 0.85 0.91 0.95 0.94 1.00 1.10 1.29 1.37 1.48
1.77 1.74 1.65 1.59 1.60 1.50 1.48 1.48 1.45 1.43 1.35 1.22 1.11 1.03 1.05 1.14 1.18 1.22 1.33 1.40 1.44 1.30 1.12 1.06 1.07 1.02 0.97 0.86 0.72 0.70 0.70 0.82 0.83 0.86 0.91 0.86 0.75 0.80 0.90 1.11 1.37 1.56 1.61
1.58 1.50 1.44 1.49 1.48 1.35 1.37 1.42 1.39 1.31 1.17 1.08 1.05 1.04 1.07 1.17 1.18 1.27 1.37 1.32 1.22 1.20 1.10 1.06 1.06 0.96 0.84 0.74 0.61 0.60 0.63 0.74 0.81 0.85 0.93 0.92 0.77 0.70 0.77 0.98 1.22 1.41 1.48
1.66 1.56 1.50 1.44 1.38 1.35 1.41 1.44 1.39 1.18 1.06 1.02 1.04 1.11 1.10 1.05 1.03 1.20 1.32 1.27 1.23 1.18 1.13 1.09 1.03 0.91 0.77 0.66 0.58 0.51 0.48 0.52 0.70 0.88 0.91 0.91 0.86 0.79 0.85 0.99 1.15 1.29 1.49
1.63 1.59 1.51 1.43 1.37 1.34 1.38 1.38 1.23 1.02 0.95 1.02 1.15 1.21 1.13 1.17 1.15 1.14 1.19 1.25 1.27 1.16 1.07 1.04 0.97 0.89 0.81 0.70 0.56 0.47 0.45 0.48 0.58 0.77 0.86 0.83 0.79 0.87 1.08 1.21 1.31 1.47 1.69
1.41 1.36 1.32 1.28 1.21 1.15 1.12 1.08 0.97 0.91 0.99 1.10 1.17 1.18 1.18 1.24 1.24 1.15 1.01 0.98 0.99 0.96 0.92 0.90 0.83 0.83 0.83 0.69 0.59 0.57 0.53 0.54 0.60 0.74 0.89 0.95 0.95 1.09 1.27 1.41 1.50 1.62 1.72
1.29 1.23 1.16 1.09 0.99 0.94 0.90 0.83 0.81 0.82 0.95 1.03 1.07 1.09 1.09 1.13 1.19 1.10 0.95 0.88 0.79 0.72 0.69 0.65 0.60 0.66 0.67 0.56 0.53 0.50 0.53 0.60 0.66 0.75 0.91 1.05 1.09 1.19 1.33 1.45 1.52 1.57 1.59
1.15 1.15 1.05 0.98 0.89 0.85 0.85 0.79 0.73 0.75 0.88 0.95 0.92 0.87 0.89 0.92 0.94 0.96 0.91 0.71 0.54 0.46 0.41 0.40 0.41 0.40 0.42 0.40 0.38 0.39 0.46 0.55 0.66 0.80 1.06 1.15 1.13 1.17 1.23 1.34 1.45 1.45 1.45